Terug naar catalogus

SL-12 R/B(2)

ActiefGEO
NORAD 19686·ROCKET BODY·🇷🇺 Russia

Gelanceerd Dec 10, 1988 vanaf Baikonur Cosmodrome

Loading…

TLE

VersSource: Space-Track

Epoch: Sep 14, 2026, 04:34 UTC

1 19686U 88108D   26257.19066191 -.00000267  00000-0  00000-0 0  9996
2 19686  11.0498 327.2603 0014938 212.0768 151.6755  1.01519128125353

Volg SL-12 R/B(2) in realtime met AllMySat

Download on the App Store